TimePST,TemperatureF,Dew PointF,Humidity,Sea Level PressureIn,VisibilityMPH,Wind Direction,Wind SpeedMPH,Gust SpeedMPH,PrecipitationIn,Events,Conditions,WindDirDegrees,DateUTC
12:52 AM,55.0,28.9,37,29.84,10.0,Calm,Calm,-,N/A,,Clear,0,2014-01-30 08:52:00
1:52 AM,55.9,28.9,36,29.83,10.0,South,4.6,-,N/A,,Clear,170,2014-01-30 09:52:00
2:52 AM,57.0,28.9,34,29.83,10.0,Calm,Calm,-,N/A,,Clear,0,2014-01-30 10:52:00
3:52 AM,59.0,27.0,29,29.81,10.0,South,5.8,-,N/A,,Clear,170,2014-01-30 11:52:00
4:52 AM,55.9,28.9,36,29.81,10.0,SE,4.6,-,N/A,,Clear,130,2014-01-30 12:52:00
5:52 AM,59.0,28.0,31,29.81,10.0,South,4.6,-,N/A,,Clear,180,2014-01-30 13:52:00
6:52 AM,62.1,25.0,24,29.81,10.0,South,16.1,-,N/A,,Clear,180,2014-01-30 14:52:00
7:52 AM,64.9,23.0,20,29.82,10.0,South,13.8,-,N/A,,Clear,190,2014-01-30 15:52:00
8:52 AM,68.0,24.1,19,29.83,10.0,South,17.3,25.3,N/A,,Clear,180,2014-01-30 16:52:00
9:52 AM,69.1,28.0,22,29.83,10.0,South,21.9,-,N/A,,Clear,180,2014-01-30 17:52:00
10:52 AM,73.0,28.0,19,29.81,10.0,South,20.7,-,N/A,,Clear,170,2014-01-30 18:52:00
11:52 AM,75.0,28.9,18,29.77,7.0,South,20.7,-,N/A,,Clear,170,2014-01-30 19:52:00
12:52 PM,77.0,30.0,18,29.74,10.0,South,18.4,-,N/A,,Clear,170,2014-01-30 20:52:00
1:52 PM,79.0,33.1,19,29.72,10.0,SSE,11.5,18.4,N/A,,Clear,150,2014-01-30 21:52:00
2:52 PM,81.0,28.0,14,29.69,10.0,SSW,19.6,-,N/A,,Clear,210,2014-01-30 22:52:00
3:52 PM,79.0,28.0,15,29.70,10.0,SW,13.8,-,N/A,,Clear,230,2014-01-30 23:52:00
4:52 PM,75.9,32.0,20,29.71,10.0,SW,9.2,-,N/A,,Clear,230,2014-01-31 00:52:00
5:52 PM,72.0,37.0,28,29.70,10.0,South,9.2,-,N/A,,Clear,190,2014-01-31 01:52:00
6:52 PM,70.0,41.0,35,29.70,10.0,South,13.8,-,N/A,,Clear,190,2014-01-31 02:52:00
7:52 PM,72.0,36.0,27,29.70,10.0,South,19.6,-,N/A,,Clear,190,2014-01-31 03:52:00
8:52 PM,69.1,36.0,30,29.72,10.0,SW,9.2,-,N/A,,Clear,220,2014-01-31 04:52:00
9:52 PM,66.0,37.0,34,29.73,10.0,South,6.9,-,N/A,,Clear,170,2014-01-31 05:52:00
10:52 PM,63.0,41.0,45,29.72,10.0,SSW,10.4,-,N/A,,Clear,210,2014-01-31 06:52:00
11:52 PM,61.0,45.0,56,29.73,10.0,WSW,11.5,-,N/A,,Clear,250,2014-01-31 07:52:00